Perkinsville, VT

4:12 AM EST on December 10, 2016 (GMT -0500)
Hartness State

Weather History for KVSF - January, 2014

Change the Weather History Date:

Saturday, January 18, 2014

  Actual Average Record
Temperature  
Mean Temperature 28 °F 19 °F  
Max Temperature 35 °F 29 °F 53 °F (2006)
Min Temperature 20 °F 9 °F -17 °F (2003)
Degree Days  
Heating Degree Days 37 46  
Month to date heating degree days 797 817  
Since 1 July heating degree days 3749 3680  
Cooling Degree Days 0 0  
Month to date cooling degree days 0  
Year to date cooling degree days 0  
Moisture  
Dew Point 24 °F    
Average Humidity 88    
Maximum Humidity 100    
Minimum Humidity 75    
Precipitation  
Precipitation 0.07 in 0.09 in 1.39 in (2006)
Month to date precipitation 2.27 1.92  
Year to date precipitation 2.27 1.92  
Sea Level Pressure  
Sea Level Pressure 29.78 in    
Wind  
Wind Speed 0 mph (NNW)    
Max Wind Speed 6 mph    
Max Gust Speed 9 mph    
Visibility 3 miles    
Events Fog , Snow    
T = Trace of Precipitation, MM = Missing Value Source: NWS Daily Summary

Daily Weather History Graph

Daily Weather History Graph

Search for Another Location

Airport or City:

Trip Planner

Search our weather history database for the weather conditions in past years. The results will help you decide how hot, cold, wet, or windy it might be!

Date:

Astronomy

Jan. 18, 2014 Rise Set
Actual Time 7:17 AM EST 4:43 PM EST
Civil Twilight 6:46 AM EST 5:15 PM EST
Nautical Twilight 6:11 AM EST 5:50 PM EST
Astronomical Twilight 5:37 AM EST 6:24 PM EST
Moon 7:28 PM EST (1/18) 8:11 AM EST (1/18)
Length of Visible Light 10h 28m
Length of Day
9h 25m
Waning Gibbous, 94% of the Moon is Illuminated
Jan 18
Waning Gibbous
Jan 24
Last Quarter
Jan 30
New
Feb 6
First Quarter
Feb 14
Full

Hourly Weather History & Observations

Time (EST) Temp. Windchill Dew Point Humidity Pressure Visibility Wind Dir Wind Speed Gust Speed Precip Events Conditions
12:08 AM 23.0 °F - 21.0 °F 92% 29.90 in 0.2 mi Calm Calm - N/A Fog Light Freezing Fog
12:20 AM 21.9 °F - 19.9 °F 92% 29.90 in 1.0 mi Calm Calm - N/A   Mist
12:22 AM 21.9 °F - 19.9 °F 92% 29.90 in 2.0 mi Calm Calm - N/A   Scattered Clouds
12:29 AM 21.9 °F - 19.9 °F 92% 29.90 in 4.0 mi Calm Calm - N/A   Scattered Clouds
12:54 AM 21.9 °F - 19.9 °F 92% 29.92 in 3.0 mi Calm Calm - N/A   Mostly Cloudy
1:31 AM 21.0 °F - 19.0 °F 92% 29.88 in 0.5 mi Calm Calm - N/A Fog Light Freezing Fog
1:39 AM 21.9 °F - 19.9 °F 92% 29.89 in 0.2 mi Calm Calm - N/A Fog Light Freezing Fog
1:54 AM 21.0 °F - 19.9 °F 96% 29.92 in 0.2 mi Calm Calm - N/A Fog Light Freezing Fog
2:09 AM 21.0 °F - 19.0 °F 92% 29.89 in 0.5 mi Calm Calm - N/A Fog Light Freezing Fog
2:19 AM 21.0 °F - 19.0 °F 92% 29.88 in 2.0 mi Calm Calm - N/A   Mostly Cloudy
2:27 AM 21.0 °F - 19.0 °F 92% 29.89 in 6.0 mi Calm Calm - N/A   Mostly Cloudy
2:37 AM 21.0 °F - 19.0 °F 92% 29.88 in 0.8 mi Calm Calm - N/A   Mist
2:54 AM 19.9 °F - 19.0 °F 96% 29.91 in 1.0 mi Calm Calm - N/A   Mist
2:57 AM 19.9 °F - 19.0 °F 96% 29.89 in 3.0 mi Calm Calm - N/A   Overcast
3:15 AM 21.0 °F - 19.0 °F 92% 29.88 in 1.8 mi Calm Calm - N/A   Overcast
3:26 AM 19.9 °F - 18.0 °F 92% 29.89 in 3.0 mi Calm Calm - N/A   Overcast
3:41 AM 19.9 °F - 19.0 °F 96% 29.88 in 1.8 mi Calm Calm - N/A   Overcast
3:54 AM 21.0 °F - 19.0 °F 92% 29.90 in 0.5 mi Calm Calm - N/A Fog Light Freezing Fog
4:08 AM 21.0 °F - 19.0 °F 92% 29.87 in 1.5 mi Calm Calm - N/A   Overcast
4:12 AM 21.0 °F - 19.0 °F 92% 29.87 in 3.0 mi Calm Calm - N/A   Overcast
4:36 AM 19.9 °F - 18.0 °F 92% 29.86 in 2.0 mi Calm Calm - N/A   Mostly Cloudy
4:45 AM 19.9 °F - 18.0 °F 92% 29.85 in 4.0 mi Calm Calm - N/A   Mostly Cloudy
4:54 AM 19.9 °F - 19.0 °F 96% 29.87 in 5.0 mi Calm Calm - N/A   Partly Cloudy
5:54 AM 21.0 °F - 19.0 °F 92% 29.88 in 6.0 mi Calm Calm - N/A   Partly Cloudy
6:54 AM 21.0 °F 16.2 °F 19.0 °F 92% 29.85 in 6.0 mi ENE 3.5 mph - N/A   Clear
7:54 AM 21.0 °F - 19.9 °F 96% 29.84 in 6.0 mi Calm Calm - N/A   Partly Cloudy
8:54 AM 21.9 °F - 21.0 °F 96% 29.82 in 6.0 mi Calm Calm - N/A   Scattered Clouds
9:54 AM 24.1 °F - 23.0 °F 96% 29.84 in 6.0 mi Calm Calm - N/A   Overcast
10:54 AM 25.0 °F - 25.0 °F 100% 29.81 in 7.0 mi Calm Calm - N/A   Scattered Clouds
11:15 AM 27.0 °F - 26.1 °F 96% 29.76 in 9.0 mi Calm Calm - N/A   Mostly Cloudy
11:54 AM 28.9 °F - 26.1 °F 89% 29.75 in 9.0 mi Calm Calm - N/A   Overcast
12:54 PM 32.0 °F - 26.1 °F 79% 29.70 in 9.0 mi Calm Calm - N/A   Overcast
1:54 PM 34.0 °F - 27.0 °F 75% 29.67 in 10.0 mi Calm Calm - 0.00 in   Overcast
2:14 PM 34.0 °F - 27.0 °F 75% 29.65 in 10.0 mi Calm Calm - N/A   Overcast
2:54 PM 34.0 °F - 27.0 °F 75% 29.68 in 9.0 mi Calm Calm - N/A   Overcast
3:27 PM 34.0 °F - 28.0 °F 79% 29.66 in 2.0 mi Calm Calm - 0.00 in Snow Light Snow
3:41 PM 33.1 °F 30.0 °F 28.0 °F 82% 29.66 in 1.8 mi Variable 3.5 mph - 0.00 in Snow Light Snow
3:51 PM 33.8 °F - 28.4 °F 81% 29.66 in 2.5 mi Calm Calm - 0.00 in Snow Light Snow
3:54 PM 33.1 °F - 28.0 °F 82% 29.69 in 2.5 mi Calm Calm - 0.00 in Snow Light Snow
4:03 PM 33.1 °F - 28.0 °F 82% 29.66 in 3.0 mi Calm Calm - 0.00 in Snow Light Snow
4:21 PM 33.1 °F - 28.9 °F 85% 29.66 in 1.8 mi Calm Calm - 0.00 in Snow Light Snow
4:39 PM 32.0 °F - 28.9 °F 88% 29.67 in 1.2 mi Calm Calm - 0.00 in Snow Light Snow
4:52 PM 30.2 °F - 30.2 °F 100% 29.67 in 2.0 mi Calm Calm - 0.00 in Snow Light Snow
4:54 PM 30.9 °F - 30.0 °F 96% 29.70 in 2.0 mi Calm Calm - 0.00 in Snow Light Snow
5:04 PM 30.9 °F - 30.0 °F 96% 29.67 in 1.5 mi Calm Calm - 0.00 in Snow Light Snow
5:54 PM 30.9 °F - 30.0 °F 96% 29.71 in 1.0 mi Calm Calm - 0.03 in Snow Light Snow
6:09 PM 30.9 °F - 30.9 °F 100% 29.68 in 0.8 mi Calm Calm - 0.00 in Snow Light Snow
6:54 PM 30.9 °F - 30.0 °F 96% 29.72 in 0.8 mi Calm Calm - 0.02 in Snow Light Snow
7:07 PM 30.9 °F - 30.0 °F 96% 29.69 in 0.8 mi Calm Calm - 0.01 in Snow Light Snow
7:24 PM 30.9 °F - 30.0 °F 96% 29.69 in 0.8 mi Calm Calm - 0.01 in Snow Light Snow
7:54 PM 30.9 °F - 30.0 °F 96% 29.71 in 1.0 mi Calm Calm - 0.02 in Snow Light Snow
8:17 PM 30.9 °F - 30.0 °F 96% 29.68 in 0.8 mi Calm Calm - 0.00 in Snow Light Snow
8:25 PM 30.9 °F - 30.0 °F 96% 29.68 in 1.0 mi Calm Calm - 0.00 in Snow Light Snow
8:34 PM 30.0 °F - 30.0 °F 100% 29.68 in 0.8 mi Calm Calm - 0.00 in Snow Light Snow
8:47 PM 30.9 °F - 30.0 °F 96% 29.68 in 1.0 mi Calm Calm - 0.00 in Snow Light Snow
8:54 PM 30.9 °F - 30.0 °F 96% 29.71 in 1.0 mi Calm Calm - 0.00 in Snow Light Snow
9:34 PM 30.0 °F - 30.0 °F 100% 29.68 in 1.0 mi Calm Calm - 0.00 in Snow Light Snow
9:54 PM 30.9 °F - 30.0 °F 96% 29.71 in 2.0 mi Calm Calm - 0.00 in   Overcast
10:07 PM 30.9 °F - 28.9 °F 92% 29.69 in 5.0 mi Calm Calm - N/A   Overcast
10:54 PM 30.9 °F - 27.0 °F 85% 29.72 in 10.0 mi Calm Calm - N/A   Overcast
11:54 PM 30.0 °F 25.2 °F 26.1 °F 85% 29.70 in 10.0 mi WSW 4.6 mph - N/A   Overcast